Location: Courçay
(47.2523°N, 0.8761°E)
Time: 20:03:27
(UTC+00:00)

Cosmos 1656 Rocket - Pass Details

Date: 18 November 2025
Orbit: 791 x 846 km, 71.1° (Epoch: 10 December)

Event Time Altitude Azimuth Distance (km) Brightness Sun altitude
Rises 17:59:10 0° 179° (S) 3,326 6.9 -17.0°
Reaches altitude 10° 18:01:43 10° 171° (S) 2,407 6.1 -17.4°
Maximum altitude 18:06:44 37° 106° (ESE) 1,274 4.2 -18.3°
Enters shadow 18:07:58 33° 78° (ENE) 1,375 4.2 -18.5°
